sat.trackr.live / text

‹ back to catalog

CHUANGXIN 20A (CX-20A)

NORAD 58425 · 2023-181A

PAYLOAD ACTIVE UNKNOWN

§ Identity

Operator
Country
PRC
Launch date
2023-11-23
Launch site
XICLF
Launch vehicle
Mass (kg)
RCS (m²)

External: N2YO · Heavens-Above · Gunter

§ Orbital elements

Epoch: 2026-09-21T18:08:58.660800Z

Period
107.34 min
Inclination
49.9607°
Eccentricity
0.0013836
Mean motion
13.41504462 rev/d
Perigee alt
1,093.3 km
Apogee alt
1,114.0 km
Semi-major
7,481.8 km
B*
4.6597e-5
RAAN
332.5994°
Arg perigee
201.7404°
Mean anomaly
158.2888°
Rev number
13,871

§ Raw data

CHUANGXIN 20A (CX-20A)1 58425U 23181A   26264.75623450 -.00000102  00000+0  46597-4 0  99992 58425  49.9607 332.5994 0013836 201.7404 158.2888 13.41504462138715

JSON: /api/v1/satellites/58425 · /tle

For live sub-satellite position, see the globe view (requires WebGL).

§ Visibility from observer

Set your observer location to see the next 7 days of passes ≥ 10°. The values pass through the URL so the page stays shareable.

No JS? Fill the form by hand. The geolocation button needs JavaScript.